Data supplied by UK-AIR on 5/4/2008
All Data GMT hour ending 
Status: R =Ratified P=Provisional,P*=As supplied
,,London Eltham,,,,,,,,,,,,,,,,,,,,,,,
Date,time,"PM10 particulate matter (Hourly measured)",status,unit,"Nitric oxide",status,unit,"Nitrogen dioxide",status,unit,"Nitrogen oxides as nitrogen dioxide",status,unit,"Ozone",status,unit,"Sulphur dioxide",status,unit
 
01-01-2002,01:00,47,R,ugm-3 (GRAV EQ),94,R,ugm-3,76,R,ugm-3,220,R,ugm-3,2,R,ugm-3,8,R,ugm-3
01-01-2002,02:00,56,R,ugm-3 (GRAV EQ),73,R,ugm-3,65,R,ugm-3,176,R,ugm-3,2,R,ugm-3,8,R,ugm-3
01-01-2002,03:00,59,R,ugm-3 (GRAV EQ),95,R,ugm-3,59,R,ugm-3,204,R,ugm-3,2,R,ugm-3,8,R,ugm-3
01-01-2002,04:00,62,R,ugm-3 (GRAV EQ),121,R,ugm-3,59,R,ugm-3,244,R,ugm-3,2,R,ugm-3,8,R,ugm-3
01-01-2002,05:00,60,R,ugm-3 (GRAV EQ),131,R,ugm-3,57,R,ugm-3,258,R,ugm-3,2,R,ugm-3,8,R,ugm-3
01-01-2002,06:00,49,R,ugm-3 (GRAV EQ),110,R,ugm-3,57,R,ugm-3,225,R,ugm-3,2,R,ugm-3,5,R,ugm-3
01-01-2002,07:00,44,R,ugm-3 (GRAV EQ),130,R,ugm-3,61,R,ugm-3,260,R,ugm-3,2,R,ugm-3,8,R,ugm-3
01-01-2002,08:00,36,R,ugm-3 (GRAV EQ),106,R,ugm-3,63,R,ugm-3,225,R,ugm-3,2,R,ugm-3,5,R,ugm-3
01-01-2002,09:00,33,R,ugm-3 (GRAV EQ),100,R,ugm-3,63,R,ugm-3,216,R,ugm-3,2,R,ugm-3,5,R,ugm-3
01-01-2002,10:00,23,R,ugm-3 (GRAV EQ),65,R,ugm-3,69,R,ugm-3,168,R,ugm-3,4,R,ugm-3,5,R,ugm-3
01-01-2002,11:00,14,R,ugm-3 (GRAV EQ),25,R,ugm-3,57,R,ugm-3,96,R,ugm-3,16,R,ugm-3,5,R,ugm-3
01-01-2002,12:00,14,R,ugm-3 (GRAV EQ),25,R,ugm-3,57,R,ugm-3,96,R,ugm-3,18,R,ugm-3,8,R,ugm-3
01-01-2002,13:00,9,R,ugm-3 (GRAV EQ),13,R,ugm-3,44,R,ugm-3,63,R,ugm-3,34,R,ugm-3,5,R,ugm-3
01-01-2002,14:00,16,R,ugm-3 (GRAV EQ),16,R,ugm-3,48,R,ugm-3,73,R,ugm-3,26,R,ugm-3,8,R,ugm-3
01-01-2002,15:00,16,R,ugm-3 (GRAV EQ),14,R,ugm-3,48,R,ugm-3,69,R,ugm-3,20,R,ugm-3,8,R,ugm-3
01-01-2002,16:00,21,R,ugm-3 (GRAV EQ),14,R,ugm-3,55,R,ugm-3,76,R,ugm-3,8,R,ugm-3,5,R,ugm-3
01-01-2002,17:00,23,R,ugm-3 (GRAV EQ),29,R,ugm-3,57,R,ugm-3,101,R,ugm-3,2,R,ugm-3,3,R,ugm-3
01-01-2002,18:00,30,R,ugm-3 (GRAV EQ),45,R,ugm-3,57,R,ugm-3,126,R,ugm-3,2,R,ugm-3,3,R,ugm-3
01-01-2002,19:00,34,R,ugm-3 (GRAV EQ),43,R,ugm-3,55,R,ugm-3,120,R,ugm-3,2,R,ugm-3,3,R,ugm-3
01-01-2002,20:00,38,R,ugm-3 (GRAV EQ),99,R,ugm-3,57,R,ugm-3,208,R,ugm-3,2,R,ugm-3,5,R,ugm-3
01-01-2002,21:00,40,R,ugm-3 (GRAV EQ),93,R,ugm-3,61,R,ugm-3,202,R,ugm-3,2,R,ugm-3,5,R,ugm-3
01-01-2002,22:00,35,R,ugm-3 (GRAV EQ),88,R,ugm-3,57,R,ugm-3,191,R,ugm-3,2,R,ugm-3,5,R,ugm-3
01-01-2002,23:00,30,R,ugm-3 (GRAV EQ),74,R,ugm-3,61,R,ugm-3,174,R,ugm-3,2,R,ugm-3,5,R,ugm-3
01-01-2002,24:00,30,R,ugm-3 (GRAV EQ),60,R,ugm-3,59,R,ugm-3,151,R,ugm-3,2,R,ugm-3,3,R,ugm-3
02-01-2002,01:00,23,R,ugm-3 (GRAV EQ),40,R,ugm-3,53,R,ugm-3,115,R,ugm-3,2,R,ugm-3,3,R,ugm-3
02-01-2002,02:00,20,R,ugm-3 (GRAV EQ),15,R,ugm-3,48,R,ugm-3,71,R,ugm-3,6,R,ugm-3,3,R,ugm-3
02-01-2002,03:00,25,R,ugm-3 (GRAV EQ),33,R,ugm-3,50,R,ugm-3,99,R,ugm-3,2,R,ugm-3,3,R,ugm-3
02-01-2002,04:00,20,R,ugm-3 (GRAV EQ),25,R,ugm-3,46,R,ugm-3,84,R,ugm-3,2,R,ugm-3,3,R,ugm-3
02-01-2002,05:00,16,R,ugm-3 (GRAV EQ),29,R,ugm-3,44,R,ugm-3,88,R,ugm-3,2,R,ugm-3,3,R,ugm-3
02-01-2002,06:00,14,R,ugm-3 (GRAV EQ),26,R,ugm-3,44,R,ugm-3,84,R,ugm-3,2,R,ugm-3,0,R,ugm-3
02-01-2002,07:00,13,R,ugm-3 (GRAV EQ),40,R,ugm-3,48,R,ugm-3,109,R,ugm-3,2,R,ugm-3,3,R,ugm-3
02-01-2002,08:00,14,R,ugm-3 (GRAV EQ),70,R,ugm-3,55,R,ugm-3,162,R,ugm-3,2,R,ugm-3,3,R,ugm-3
02-01-2002,09:00,18,R,ugm-3 (GRAV EQ),85,R,ugm-3,59,R,ugm-3,189,R,ugm-3,2,R,ugm-3,3,R,ugm-3
02-01-2002,10:00,21,R,ugm-3 (GRAV EQ),86,R,ugm-3,61,R,ugm-3,193,R,ugm-3,4,R,ugm-3,3,R,ugm-3
02-01-2002,11:00,18,R,ugm-3 (GRAV EQ),55,R,ugm-3,57,R,ugm-3,141,R,ugm-3,6,R,ugm-3,3,R,ugm-3
02-01-2002,12:00,17,R,ugm-3 (GRAV EQ),28,R,ugm-3,50,R,ugm-3,92,R,ugm-3,16,R,ugm-3,3,R,ugm-3
02-01-2002,13:00,9,R,ugm-3 (GRAV EQ),18,R,ugm-3,38,R,ugm-3,65,R,ugm-3,30,R,ugm-3,3,R,ugm-3
02-01-2002,14:00,14,R,ugm-3 (GRAV EQ),11,R,ugm-3,31,R,ugm-3,48,R,ugm-3,36,R,ugm-3,3,R,ugm-3
02-01-2002,15:00,20,R,ugm-3 (GRAV EQ),13,R,ugm-3,34,R,ugm-3,53,R,ugm-3,30,R,ugm-3,3,R,ugm-3
02-01-2002,16:00,27,R,ugm-3 (GRAV EQ),41,R,ugm-3,55,R,ugm-3,118,R,ugm-3,10,R,ugm-3,5,R,ugm-3
02-01-2002,17:00,30,R,ugm-3 (GRAV EQ),58,R,ugm-3,61,R,ugm-3,149,R,ugm-3,2,R,ugm-3,3,R,ugm-3
02-01-2002,18:00,34,R,ugm-3 (GRAV EQ),66,R,ugm-3,61,R,ugm-3,162,R,ugm-3,2,R,ugm-3,3,R,ugm-3
02-01-2002,19:00,38,R,ugm-3 (GRAV EQ),69,R,ugm-3,65,R,ugm-3,170,R,ugm-3,2,R,ugm-3,5,R,ugm-3
02-01-2002,20:00,38,R,ugm-3 (GRAV EQ),50,R,ugm-3,67,R,ugm-3,143,R,ugm-3,2,R,ugm-3,5,R,ugm-3
02-01-2002,21:00,34,R,ugm-3 (GRAV EQ),31,R,ugm-3,69,R,ugm-3,117,R,ugm-3,2,R,ugm-3,5,R,ugm-3
02-01-2002,22:00,33,R,ugm-3 (GRAV EQ),28,R,ugm-3,69,R,ugm-3,111,R,ugm-3,2,R,ugm-3,5,R,ugm-3
02-01-2002,23:00,30,R,ugm-3 (GRAV EQ),24,R,ugm-3,67,R,ugm-3,103,R,ugm-3,2,R,ugm-3,5,R,ugm-3
02-01-2002,24:00,29,R,ugm-3 (GRAV EQ),13,R,ugm-3,67,R,ugm-3,86,R,ugm-3,4,R,ugm-3,5,R,ugm-3
03-01-2002,01:00,29,R,ugm-3 (GRAV EQ),9,R,ugm-3,59,R,ugm-3,73,R,ugm-3,4,R,ugm-3,3,R,ugm-3
03-01-2002,02:00,25,R,ugm-3 (GRAV EQ),5,R,ugm-3,50,R,ugm-3,57,R,ugm-3,10,R,ugm-3,3,R,ugm-3
03-01-2002,03:00,23,R,ugm-3 (GRAV EQ),9,R,ugm-3,50,R,ugm-3,63,R,ugm-3,8,R,ugm-3,3,R,ugm-3
03-01-2002,04:00,20,R,ugm-3 (GRAV EQ),6,R,ugm-3,50,R,ugm-3,59,R,ugm-3,6,R,ugm-3,3,R,ugm-3
03-01-2002,05:00,25,R,ugm-3 (GRAV EQ),13,R,ugm-3,53,R,ugm-3,73,R,ugm-3,2,R,ugm-3,5,R,ugm-3
03-01-2002,06:00,18,R,ugm-3 (GRAV EQ),8,R,ugm-3,50,R,ugm-3,61,R,ugm-3,4,R,ugm-3,5,R,ugm-3
03-01-2002,07:00,18,R,ugm-3 (GRAV EQ),13,R,ugm-3,52,R,ugm-3,71,R,ugm-3,4,R,ugm-3,5,R,ugm-3
03-01-2002,08:00,18,R,ugm-3 (GRAV EQ),23,R,ugm-3,52,R,ugm-3,86,R,ugm-3,2,R,ugm-3,5,R,ugm-3
03-01-2002,09:00,22,R,ugm-3 (GRAV EQ),38,R,ugm-3,52,R,ugm-3,109,R,ugm-3,4,R,ugm-3,5,R,ugm-3
03-01-2002,10:00,23,R,ugm-3 (GRAV EQ),56,R,ugm-3,52,R,ugm-3,138,R,ugm-3,4,R,ugm-3,5,R,ugm-3
03-01-2002,11:00,22,R,ugm-3 (GRAV EQ),43,R,ugm-3,50,R,ugm-3,115,R,ugm-3,10,R,ugm-3,8,R,ugm-3
03-01-2002,12:00,21,R,ugm-3 (GRAV EQ),40,R,ugm-3,50,R,ugm-3,111,R,ugm-3,12,R,ugm-3,8,R,ugm-3
03-01-2002,13:00,22,R,ugm-3 (GRAV EQ),30,R,ugm-3,44,R,ugm-3,90,R,ugm-3,14,R,ugm-3,8,R,ugm-3
03-01-2002,14:00,23,R,ugm-3 (GRAV EQ),33,R,ugm-3,48,R,ugm-3,97,R,ugm-3,12,R,ugm-3,13,R,ugm-3
03-01-2002,15:00,27,R,ugm-3 (GRAV EQ),41,R,ugm-3,52,R,ugm-3,115,R,ugm-3,6,R,ugm-3,27,R,ugm-3
03-01-2002,16:00,26,R,ugm-3 (GRAV EQ),28,R,ugm-3,53,R,ugm-3,96,R,ugm-3,4,R,ugm-3,16,R,ugm-3
03-01-2002,17:00,25,R,ugm-3 (GRAV EQ),24,R,ugm-3,57,R,ugm-3,94,R,ugm-3,2,R,ugm-3,5,R,ugm-3
03-01-2002,18:00,25,R,ugm-3 (GRAV EQ),40,R,ugm-3,57,R,ugm-3,118,R,ugm-3,2,R,ugm-3,3,R,ugm-3
03-01-2002,19:00,26,R,ugm-3 (GRAV EQ),49,R,ugm-3,61,R,ugm-3,136,R,ugm-3,2,R,ugm-3,3,R,ugm-3
03-01-2002,20:00,27,R,ugm-3 (GRAV EQ),44,R,ugm-3,61,R,ugm-3,128,R,ugm-3,2,R,ugm-3,5,R,ugm-3
03-01-2002,21:00,27,R,ugm-3 (GRAV EQ),51,R,ugm-3,63,R,ugm-3,141,R,ugm-3,2,R,ugm-3,5,R,ugm-3
03-01-2002,22:00,26,R,ugm-3 (GRAV EQ),60,R,ugm-3,65,R,ugm-3,157,R,ugm-3,2,R,ugm-3,5,R,ugm-3
03-01-2002,23:00,25,R,ugm-3 (GRAV EQ),49,R,ugm-3,65,R,ugm-3,139,R,ugm-3,2,R,ugm-3,3,R,ugm-3
03-01-2002,24:00,26,R,ugm-3 (GRAV EQ),38,R,ugm-3,61,R,ugm-3,118,R,ugm-3,2,R,ugm-3,3,R,ugm-3
04-01-2002,01:00,31,R,ugm-3 (GRAV EQ),46,R,ugm-3,57,R,ugm-3,128,R,ugm-3,2,R,ugm-3,8,R,ugm-3
04-01-2002,02:00,26,R,ugm-3 (GRAV EQ),31,R,ugm-3,59,R,ugm-3,107,R,ugm-3,2,R,ugm-3,8,R,ugm-3
04-01-2002,03:00,22,R,ugm-3 (GRAV EQ),15,R,ugm-3,53,R,ugm-3,76,R,ugm-3,2,R,ugm-3,3,R,ugm-3
04-01-2002,04:00,25,R,ugm-3 (GRAV EQ),23,R,ugm-3,53,R,ugm-3,88,R,ugm-3,2,R,ugm-3,3,R,ugm-3
04-01-2002,05:00,23,R,ugm-3 (GRAV EQ),21,R,ugm-3,50,R,ugm-3,82,R,ugm-3,2,R,ugm-3,3,R,ugm-3
04-01-2002,06:00,25,R,ugm-3 (GRAV EQ),20,R,ugm-3,52,R,ugm-3,82,R,ugm-3,2,R,ugm-3,3,R,ugm-3
04-01-2002,07:00,27,R,ugm-3 (GRAV EQ),54,R,ugm-3,52,R,ugm-3,134,R,ugm-3,2,R,ugm-3,3,R,ugm-3
04-01-2002,08:00,30,R,ugm-3 (GRAV EQ),66,R,ugm-3,53,R,ugm-3,155,R,ugm-3,2,R,ugm-3,5,R,ugm-3
04-01-2002,09:00,35,R,ugm-3 (GRAV EQ),103,R,ugm-3,55,R,ugm-3,212,R,ugm-3,2,R,ugm-3,5,R,ugm-3
04-01-2002,10:00,38,R,ugm-3 (GRAV EQ),103,R,ugm-3,59,R,ugm-3,216,R,ugm-3,4,R,ugm-3,8,R,ugm-3
04-01-2002,11:00,35,R,ugm-3 (GRAV EQ),74,R,ugm-3,55,R,ugm-3,168,R,ugm-3,6,R,ugm-3,8,R,ugm-3
04-01-2002,12:00,25,R,ugm-3 (GRAV EQ),19,R,ugm-3,32,R,ugm-3,61,R,ugm-3,20,R,ugm-3,11,R,ugm-3
04-01-2002,13:00,26,R,ugm-3 (GRAV EQ),14,R,ugm-3,29,R,ugm-3,50,R,ugm-3,22,R,ugm-3,8,R,ugm-3
04-01-2002,14:00,27,R,ugm-3 (GRAV EQ),15,R,ugm-3,27,R,ugm-3,50,R,ugm-3,22,R,ugm-3,8,R,ugm-3
04-01-2002,15:00,30,R,ugm-3 (GRAV EQ),14,R,ugm-3,29,R,ugm-3,50,R,ugm-3,16,R,ugm-3,5,R,ugm-3
04-01-2002,16:00,31,R,ugm-3 (GRAV EQ),23,R,ugm-3,40,R,ugm-3,74,R,ugm-3,6,R,ugm-3,3,R,ugm-3
04-01-2002,17:00,35,R,ugm-3 (GRAV EQ),31,R,ugm-3,44,R,ugm-3,92,R,ugm-3,2,R,ugm-3,3,R,ugm-3
04-01-2002,18:00,40,R,ugm-3 (GRAV EQ),29,R,ugm-3,44,R,ugm-3,88,R,ugm-3,2,R,ugm-3,3,R,ugm-3
04-01-2002,19:00,42,R,ugm-3 (GRAV EQ),54,R,ugm-3,46,R,ugm-3,128,R,ugm-3,2,R,ugm-3,3,R,ugm-3
04-01-2002,20:00,40,R,ugm-3 (GRAV EQ),43,R,ugm-3,46,R,ugm-3,111,R,ugm-3,2,R,ugm-3,3,R,ugm-3
04-01-2002,21:00,36,R,ugm-3 (GRAV EQ),39,R,ugm-3,46,R,ugm-3,105,R,ugm-3,2,R,ugm-3,3,R,ugm-3
04-01-2002,22:00,38,R,ugm-3 (GRAV EQ),29,R,ugm-3,46,R,ugm-3,90,R,ugm-3,2,R,ugm-3,3,R,ugm-3
04-01-2002,23:00,39,R,ugm-3 (GRAV EQ),48,R,ugm-3,48,R,ugm-3,120,R,ugm-3,2,R,ugm-3,3,R,ugm-3
04-01-2002,24:00,40,R,ugm-3 (GRAV EQ),36,R,ugm-3,50,R,ugm-3,105,R,ugm-3,2,R,ugm-3,3,R,ugm-3
05-01-2002,01:00,39,R,ugm-3 (GRAV EQ),36,R,ugm-3,50,R,ugm-3,105,R,ugm-3,2,R,ugm-3,3,R,ugm-3
05-01-2002,02:00,42,R,ugm-3 (GRAV EQ),31,R,ugm-3,50,R,ugm-3,97,R,ugm-3,2,R,ugm-3,3,R,ugm-3
05-01-2002,03:00,40,R,ugm-3 (GRAV EQ),29,R,ugm-3,48,R,ugm-3,92,R,ugm-3,2,R,ugm-3,3,R,ugm-3
05-01-2002,04:00,39,R,ugm-3 (GRAV EQ),25,R,ugm-3,48,R,ugm-3,86,R,ugm-3,2,R,ugm-3,3,R,ugm-3
05-01-2002,05:00,35,R,ugm-3 (GRAV EQ),24,R,ugm-3,48,R,ugm-3,84,R,ugm-3,2,R,ugm-3,3,R,ugm-3
05-01-2002,06:00,36,R,ugm-3 (GRAV EQ),18,R,ugm-3,48,R,ugm-3,74,R,ugm-3,2,R,ugm-3,3,R,ugm-3
05-01-2002,07:00,35,R,ugm-3 (GRAV EQ),21,R,ugm-3,46,R,ugm-3,78,R,ugm-3,2,R,ugm-3,3,R,ugm-3
05-01-2002,08:00,36,R,ugm-3 (GRAV EQ),25,R,ugm-3,44,R,ugm-3,82,R,ugm-3,2,R,ugm-3,3,R,ugm-3
05-01-2002,09:00,39,R,ugm-3 (GRAV EQ),28,R,ugm-3,44,R,ugm-3,86,R,ugm-3,2,R,ugm-3,3,R,ugm-3
05-01-2002,10:00,43,R,ugm-3 (GRAV EQ),21,R,ugm-3,42,R,ugm-3,74,R,ugm-3,2,R,ugm-3,3,R,ugm-3
05-01-2002,11:00,42,R,ugm-3 (GRAV EQ),23,R,ugm-3,42,R,ugm-3,76,R,ugm-3,4,R,ugm-3,5,R,ugm-3
05-01-2002,12:00,42,R,ugm-3 (GRAV EQ),25,R,ugm-3,40,R,ugm-3,78,R,ugm-3,4,R,ugm-3,5,R,ugm-3
05-01-2002,13:00,47,R,ugm-3 (GRAV EQ),30,R,ugm-3,40,R,ugm-3,86,R,ugm-3,4,R,ugm-3,5,R,ugm-3
05-01-2002,14:00,48,R,ugm-3 (GRAV EQ),35,R,ugm-3,42,R,ugm-3,96,R,ugm-3,2,R,ugm-3,5,R,ugm-3
05-01-2002,15:00,40,R,ugm-3 (GRAV EQ),33,R,ugm-3,42,R,ugm-3,92,R,ugm-3,2,R,ugm-3,3,R,ugm-3
05-01-2002,16:00,33,R,ugm-3 (GRAV EQ),30,R,ugm-3,42,R,ugm-3,88,R,ugm-3,2,R,ugm-3,3,R,ugm-3
05-01-2002,17:00,30,R,ugm-3 (GRAV EQ),34,R,ugm-3,46,R,ugm-3,97,R,ugm-3,2,R,ugm-3,3,R,ugm-3
05-01-2002,18:00,34,R,ugm-3 (GRAV EQ),48,R,ugm-3,53,R,ugm-3,126,R,ugm-3,2,R,ugm-3,3,R,ugm-3
05-01-2002,19:00,29,R,ugm-3 (GRAV EQ),25,R,ugm-3,59,R,ugm-3,97,R,ugm-3,4,R,ugm-3,3,R,ugm-3
05-01-2002,20:00,29,R,ugm-3 (GRAV EQ),18,R,ugm-3,55,R,ugm-3,82,R,ugm-3,4,R,ugm-3,3,R,ugm-3
05-01-2002,21:00,27,R,ugm-3 (GRAV EQ),16,R,ugm-3,53,R,ugm-3,78,R,ugm-3,4,R,ugm-3,3,R,ugm-3
05-01-2002,22:00,22,R,ugm-3 (GRAV EQ),15,R,ugm-3,50,R,ugm-3,73,R,ugm-3,4,R,ugm-3,3,R,ugm-3
05-01-2002,23:00,20,R,ugm-3 (GRAV EQ),16,R,ugm-3,48,R,ugm-3,73,R,ugm-3,2,R,ugm-3,3,R,ugm-3
05-01-2002,24:00,17,R,ugm-3 (GRAV EQ),9,R,ugm-3,42,R,ugm-3,55,R,ugm-3,4,R,ugm-3,3,R,ugm-3
06-01-2002,01:00,20,R,ugm-3 (GRAV EQ),8,R,ugm-3,36,R,ugm-3,48,R,ugm-3,6,R,ugm-3,0,R,ugm-3
06-01-2002,02:00,20,R,ugm-3 (GRAV EQ),5,R,ugm-3,31,R,ugm-3,38,R,ugm-3,8,R,ugm-3,0,R,ugm-3
06-01-2002,03:00,23,R,ugm-3 (GRAV EQ),5,R,ugm-3,34,R,ugm-3,42,R,ugm-3,4,R,ugm-3,0,R,ugm-3
06-01-2002,04:00,22,R,ugm-3 (GRAV EQ),6,R,ugm-3,32,R,ugm-3,42,R,ugm-3,2,R,ugm-3,0,R,ugm-3
06-01-2002,05:00,17,R,ugm-3 (GRAV EQ),5,R,ugm-3,32,R,ugm-3,40,R,ugm-3,2,R,ugm-3,0,R,ugm-3
06-01-2002,06:00,14,R,ugm-3 (GRAV EQ),9,R,ugm-3,31,R,ugm-3,44,R,ugm-3,2,R,ugm-3,0,R,ugm-3
06-01-2002,07:00,14,R,ugm-3 (GRAV EQ),10,R,ugm-3,32,R,ugm-3,48,R,ugm-3,2,R,ugm-3,0,R,ugm-3
06-01-2002,08:00,14,R,ugm-3 (GRAV EQ),24,R,ugm-3,34,R,ugm-3,71,R,ugm-3,2,R,ugm-3,0,R,ugm-3
06-01-2002,09:00,17,R,ugm-3 (GRAV EQ),43,R,ugm-3,34,R,ugm-3,99,R,ugm-3,2,R,ugm-3,0,R,ugm-3
06-01-2002,10:00,17,R,ugm-3 (GRAV EQ),48,R,ugm-3,40,R,ugm-3,113,R,ugm-3,2,R,ugm-3,3,R,ugm-3
06-01-2002,11:00,18,R,ugm-3 (GRAV EQ),38,R,ugm-3,40,R,ugm-3,97,R,ugm-3,2,R,ugm-3,3,R,ugm-3
06-01-2002,12:00,20,R,ugm-3 (GRAV EQ),55,R,ugm-3,44,R,ugm-3,128,R,ugm-3,2,R,ugm-3,3,R,ugm-3
06-01-2002,13:00,20,R,ugm-3 (GRAV EQ),60,R,ugm-3,46,R,ugm-3,138,R,ugm-3,2,R,ugm-3,3,R,ugm-3
06-01-2002,14:00,27,R,ugm-3 (GRAV EQ),79,R,ugm-3,53,R,ugm-3,174,R,ugm-3,2,R,ugm-3,5,R,ugm-3
06-01-2002,15:00,31,R,ugm-3 (GRAV EQ),78,R,ugm-3,53,R,ugm-3,172,R,ugm-3,2,R,ugm-3,5,R,ugm-3
06-01-2002,16:00,33,R,ugm-3 (GRAV EQ),95,R,ugm-3,52,R,ugm-3,197,R,ugm-3,2,R,ugm-3,5,R,ugm-3
06-01-2002,17:00,35,R,ugm-3 (GRAV EQ),90,R,ugm-3,53,R,ugm-3,191,R,ugm-3,2,R,ugm-3,5,R,ugm-3
06-01-2002,18:00,29,R,ugm-3 (GRAV EQ),83,R,ugm-3,46,R,ugm-3,172,R,ugm-3,2,R,ugm-3,5,R,ugm-3
06-01-2002,19:00,25,R,ugm-3 (GRAV EQ),76,R,ugm-3,52,R,ugm-3,168,R,ugm-3,2,R,ugm-3,5,R,ugm-3
06-01-2002,20:00,22,R,ugm-3 (GRAV EQ),66,R,ugm-3,59,R,ugm-3,160,R,ugm-3,0,R,ugm-3,5,R,ugm-3
06-01-2002,21:00,42,R,ugm-3 (GRAV EQ),140,R,ugm-3,50,R,ugm-3,264,R,ugm-3,0,R,ugm-3,5,R,ugm-3
06-01-2002,22:00,44,R,ugm-3 (GRAV EQ),131,R,ugm-3,53,R,ugm-3,254,R,ugm-3,2,R,ugm-3,5,R,ugm-3
06-01-2002,23:00,49,R,ugm-3 (GRAV EQ),131,R,ugm-3,52,R,ugm-3,252,R,ugm-3,2,R,ugm-3,5,R,ugm-3
06-01-2002,24:00,44,R,ugm-3 (GRAV EQ),110,R,ugm-3,57,R,ugm-3,225,R,ugm-3,2,R,ugm-3,5,R,ugm-3
07-01-2002,01:00,13,R,ugm-3 (GRAV EQ),20,R,ugm-3,63,R,ugm-3,94,R,ugm-3,2,R,ugm-3,3,R,ugm-3
07-01-2002,02:00,9,R,ugm-3 (GRAV EQ),11,R,ugm-3,59,R,ugm-3,76,R,ugm-3,2,R,ugm-3,3,R,ugm-3
07-01-2002,03:00,9,R,ugm-3 (GRAV EQ),3,R,ugm-3,46,R,ugm-3,50,R,ugm-3,4,R,ugm-3,0,R,ugm-3
07-01-2002,04:00,8,R,ugm-3 (GRAV EQ),3,R,ugm-3,38,R,ugm-3,42,R,ugm-3,6,R,ugm-3,0,R,ugm-3
07-01-2002,05:00,8,R,ugm-3 (GRAV EQ),4,R,ugm-3,38,R,ugm-3,44,R,ugm-3,4,R,ugm-3,0,R,ugm-3
07-01-2002,06:00,9,R,ugm-3 (GRAV EQ),9,R,ugm-3,40,R,ugm-3,53,R,ugm-3,0,R,ugm-3,0,R,ugm-3
07-01-2002,07:00,10,R,ugm-3 (GRAV EQ),16,R,ugm-3,42,R,ugm-3,67,R,ugm-3,2,R,ugm-3,0,R,ugm-3
07-01-2002,08:00,13,R,ugm-3 (GRAV EQ),49,R,ugm-3,42,R,ugm-3,117,R,ugm-3,2,R,ugm-3,3,R,ugm-3
07-01-2002,09:00,16,R,ugm-3 (GRAV EQ),51,R,ugm-3,46,R,ugm-3,124,R,ugm-3,2,R,ugm-3,3,R,ugm-3
07-01-2002,10:00,20,R,ugm-3 (GRAV EQ),69,R,ugm-3,48,R,ugm-3,153,R,ugm-3,2,R,ugm-3,3,R,ugm-3
07-01-2002,11:00,18,R,ugm-3 (GRAV EQ),,,,,,,,,,,,,,,
07-01-2002,12:00,23,R,ugm-3 (GRAV EQ),,,,,,,,,,,,,,,
07-01-2002,13:00,27,R,ugm-3 (GRAV EQ),39,R,ugm-3,42,R,ugm-3,101,R,ugm-3,2,R,ugm-3,5,R,ugm-3
07-01-2002,14:00,29,R,ugm-3 (GRAV EQ),35,R,ugm-3,38,R,ugm-3,92,R,ugm-3,4,R,ugm-3,8,R,ugm-3
07-01-2002,15:00,27,R,ugm-3 (GRAV EQ),16,R,ugm-3,34,R,ugm-3,59,R,ugm-3,4,R,ugm-3,5,R,ugm-3
07-01-2002,16:00,38,R,ugm-3 (GRAV EQ),16,R,ugm-3,31,R,ugm-3,55,R,ugm-3,4,R,ugm-3,3,R,ugm-3
07-01-2002,17:00,48,R,ugm-3 (GRAV EQ),34,R,ugm-3,36,R,ugm-3,88,R,ugm-3,2,R,ugm-3,5,R,ugm-3
07-01-2002,18:00,47,R,ugm-3 (GRAV EQ),33,R,ugm-3,40,R,ugm-3,90,R,ugm-3,2,R,ugm-3,3,R,ugm-3
07-01-2002,19:00,38,R,ugm-3 (GRAV EQ),25,R,ugm-3,40,R,ugm-3,78,R,ugm-3,2,R,ugm-3,3,R,ugm-3
07-01-2002,20:00,34,R,ugm-3 (GRAV EQ),33,R,ugm-3,36,R,ugm-3,86,R,ugm-3,2,R,ugm-3,3,R,ugm-3
07-01-2002,21:00,33,R,ugm-3 (GRAV EQ),45,R,ugm-3,38,R,ugm-3,107,R,ugm-3,2,R,ugm-3,3,R,ugm-3
07-01-2002,22:00,33,R,ugm-3 (GRAV EQ),43,R,ugm-3,36,R,ugm-3,101,R,ugm-3,2,R,ugm-3,3,R,ugm-3
07-01-2002,23:00,30,R,ugm-3 (GRAV EQ),40,R,ugm-3,31,R,ugm-3,92,R,ugm-3,2,R,ugm-3,3,R,ugm-3
07-01-2002,24:00,35,R,ugm-3 (GRAV EQ),100,R,ugm-3,36,R,ugm-3,189,R,ugm-3,2,R,ugm-3,3,R,ugm-3
08-01-2002,01:00,42,R,ugm-3 (GRAV EQ),124,R,ugm-3,42,R,ugm-3,231,R,ugm-3,2,R,ugm-3,3,R,ugm-3
08-01-2002,02:00,36,R,ugm-3 (GRAV EQ),81,R,ugm-3,42,R,ugm-3,166,R,ugm-3,2,R,ugm-3,3,R,ugm-3
08-01-2002,03:00,34,R,ugm-3 (GRAV EQ),48,R,ugm-3,46,R,ugm-3,118,R,ugm-3,0,R,ugm-3,3,R,ugm-3
08-01-2002,04:00,34,R,ugm-3 (GRAV EQ),49,R,ugm-3,46,R,ugm-3,120,R,ugm-3,2,R,ugm-3,3,R,ugm-3
08-01-2002,05:00,30,R,ugm-3 (GRAV EQ),28,R,ugm-3,46,R,ugm-3,88,R,ugm-3,2,R,ugm-3,3,R,ugm-3
08-01-2002,06:00,31,R,ugm-3 (GRAV EQ),15,R,ugm-3,40,R,ugm-3,63,R,ugm-3,2,R,ugm-3,3,R,ugm-3
08-01-2002,07:00,33,R,ugm-3 (GRAV EQ),34,R,ugm-3,44,R,ugm-3,96,R,ugm-3,2,R,ugm-3,8,R,ugm-3
08-01-2002,08:00,27,R,ugm-3 (GRAV EQ),40,R,ugm-3,52,R,ugm-3,113,R,ugm-3,2,R,ugm-3,24,R,ugm-3
08-01-2002,09:00,34,R,ugm-3 (GRAV EQ),83,R,ugm-3,52,R,ugm-3,178,R,ugm-3,2,R,ugm-3,19,R,ugm-3
08-01-2002,10:00,25,R,ugm-3 (GRAV EQ),48,R,ugm-3,52,R,ugm-3,124,R,ugm-3,4,R,ugm-3,13,R,ugm-3
08-01-2002,11:00,25,R,ugm-3 (GRAV EQ),15,R,ugm-3,46,R,ugm-3,69,R,ugm-3,6,R,ugm-3,16,R,ugm-3
08-01-2002,12:00,39,R,ugm-3 (GRAV EQ),29,R,ugm-3,48,R,ugm-3,92,R,ugm-3,2,R,ugm-3,19,R,ugm-3
08-01-2002,13:00,34,R,ugm-3 (GRAV EQ),16,R,ugm-3,44,R,ugm-3,69,R,ugm-3,6,R,ugm-3,19,R,ugm-3
08-01-2002,14:00,35,R,ugm-3 (GRAV EQ),21,R,ugm-3,42,R,ugm-3,74,R,ugm-3,4,R,ugm-3,19,R,ugm-3
08-01-2002,15:00,35,R,ugm-3 (GRAV EQ),19,R,ugm-3,44,R,ugm-3,73,R,ugm-3,6,R,ugm-3,21,R,ugm-3
08-01-2002,16:00,38,R,ugm-3 (GRAV EQ),19,R,ugm-3,46,R,ugm-3,74,R,ugm-3,4,R,ugm-3,11,R,ugm-3
08-01-2002,17:00,46,R,ugm-3 (GRAV EQ),29,R,ugm-3,48,R,ugm-3,92,R,ugm-3,4,R,ugm-3,8,R,ugm-3
08-01-2002,18:00,35,R,ugm-3 (GRAV EQ),26,R,ugm-3,52,R,ugm-3,92,R,ugm-3,2,R,ugm-3,8,R,ugm-3
08-01-2002,19:00,27,R,ugm-3 (GRAV EQ),19,R,ugm-3,52,R,ugm-3,80,R,ugm-3,2,R,ugm-3,8,R,ugm-3
08-01-2002,20:00,25,R,ugm-3 (GRAV EQ),25,R,ugm-3,52,R,ugm-3,90,R,ugm-3,2,R,ugm-3,5,R,ugm-3
08-01-2002,21:00,27,R,ugm-3 (GRAV EQ),58,R,ugm-3,48,R,ugm-3,136,R,ugm-3,2,R,ugm-3,3,R,ugm-3
08-01-2002,22:00,30,R,ugm-3 (GRAV EQ),74,R,ugm-3,48,R,ugm-3,160,R,ugm-3,2,R,ugm-3,3,R,ugm-3
08-01-2002,23:00,29,R,ugm-3 (GRAV EQ),63,R,ugm-3,50,R,ugm-3,145,R,ugm-3,2,R,ugm-3,3,R,ugm-3
08-01-2002,24:00,27,R,ugm-3 (GRAV EQ),68,R,ugm-3,46,R,ugm-3,149,R,ugm-3,2,R,ugm-3,3,R,ugm-3
09-01-2002,01:00,31,R,ugm-3 (GRAV EQ),51,R,ugm-3,46,R,ugm-3,124,R,ugm-3,2,R,ugm-3,3,R,ugm-3
09-01-2002,02:00,27,R,ugm-3 (GRAV EQ),23,R,ugm-3,44,R,ugm-3,78,R,ugm-3,2,R,ugm-3,3,R,ugm-3
09-01-2002,03:00,27,R,ugm-3 (GRAV EQ),18,R,ugm-3,32,R,ugm-3,59,R,ugm-3,0,R,ugm-3,3,R,ugm-3
09-01-2002,04:00,29,R,ugm-3 (GRAV EQ),19,R,ugm-3,34,R,ugm-3,63,R,ugm-3,2,R,ugm-3,3,R,ugm-3
09-01-2002,05:00,30,R,ugm-3 (GRAV EQ),19,R,ugm-3,34,R,ugm-3,63,R,ugm-3,2,R,ugm-3,3,R,ugm-3
09-01-2002,06:00,31,R,ugm-3 (GRAV EQ),19,R,ugm-3,34,R,ugm-3,63,R,ugm-3,2,R,ugm-3,3,R,ugm-3
09-01-2002,07:00,29,R,ugm-3 (GRAV EQ),45,R,ugm-3,36,R,ugm-3,105,R,ugm-3,2,R,ugm-3,3,R,ugm-3
09-01-2002,08:00,44,R,ugm-3 (GRAV EQ),136,R,ugm-3,53,R,ugm-3,262,R,ugm-3,2,R,ugm-3,5,R,ugm-3
09-01-2002,09:00,42,R,ugm-3 (GRAV EQ),49,R,ugm-3,52,R,ugm-3,126,R,ugm-3,2,R,ugm-3,3,R,ugm-3
09-01-2002,10:00,44,R,ugm-3 (GRAV EQ),86,R,ugm-3,52,R,ugm-3,183,R,ugm-3,2,R,ugm-3,5,R,ugm-3
09-01-2002,11:00,61,R,ugm-3 (GRAV EQ),150,R,ugm-3,61,R,ugm-3,290,R,ugm-3,2,R,ugm-3,8,R,ugm-3
09-01-2002,12:00,57,R,ugm-3 (GRAV EQ),103,R,ugm-3,59,R,ugm-3,216,R,ugm-3,2,R,ugm-3,8,R,ugm-3
09-01-2002,13:00,59,R,ugm-3 (GRAV EQ),104,R,ugm-3,63,R,ugm-3,222,R,ugm-3,4,R,ugm-3,16,R,ugm-3
09-01-2002,14:00,48,R,ugm-3 (GRAV EQ),65,R,ugm-3,63,R,ugm-3,162,R,ugm-3,4,R,ugm-3,19,R,ugm-3
09-01-2002,15:00,49,R,ugm-3 (GRAV EQ),75,R,ugm-3,65,R,ugm-3,180,R,ugm-3,4,R,ugm-3,13,R,ugm-3
09-01-2002,16:00,44,R,ugm-3 (GRAV EQ),50,R,ugm-3,59,R,ugm-3,136,R,ugm-3,2,R,ugm-3,8,R,ugm-3
09-01-2002,17:00,44,R,ugm-3 (GRAV EQ),43,R,ugm-3,57,R,ugm-3,122,R,ugm-3,2,R,ugm-3,8,R,ugm-3
09-01-2002,18:00,42,R,ugm-3 (GRAV EQ),43,R,ugm-3,53,R,ugm-3,118,R,ugm-3,2,R,ugm-3,5,R,ugm-3
09-01-2002,19:00,42,R,ugm-3 (GRAV EQ),43,R,ugm-3,53,R,ugm-3,118,R,ugm-3,2,R,ugm-3,5,R,ugm-3
09-01-2002,20:00,40,R,ugm-3 (GRAV EQ),43,R,ugm-3,50,R,ugm-3,115,R,ugm-3,2,R,ugm-3,3,R,ugm-3
09-01-2002,21:00,42,R,ugm-3 (GRAV EQ),38,R,ugm-3,57,R,ugm-3,115,R,ugm-3,2,R,ugm-3,5,R,ugm-3
09-01-2002,22:00,42,R,ugm-3 (GRAV EQ),53,R,ugm-3,57,R,ugm-3,138,R,ugm-3,2,R,ugm-3,5,R,ugm-3
09-01-2002,23:00,42,R,ugm-3 (GRAV EQ),35,R,ugm-3,59,R,ugm-3,113,R,ugm-3,2,R,ugm-3,5,R,ugm-3
09-01-2002,24:00,40,R,ugm-3 (GRAV EQ),29,R,ugm-3,55,R,ugm-3,99,R,ugm-3,2,R,ugm-3,3,R,ugm-3
10-01-2002,01:00,38,R,ugm-3 (GRAV EQ),24,R,ugm-3,57,R,ugm-3,94,R,ugm-3,2,R,ugm-3,3,R,ugm-3
10-01-2002,02:00,36,R,ugm-3 (GRAV EQ),15,R,ugm-3,55,R,ugm-3,78,R,ugm-3,2,R,ugm-3,3,R,ugm-3
10-01-2002,03:00,36,R,ugm-3 (GRAV EQ),9,R,ugm-3,55,R,ugm-3,69,R,ugm-3,2,R,ugm-3,3,R,ugm-3
10-01-2002,04:00,34,R,ugm-3 (GRAV EQ),9,R,ugm-3,52,R,ugm-3,65,R,ugm-3,2,R,ugm-3,3,R,ugm-3
10-01-2002,05:00,30,R,ugm-3 (GRAV EQ),8,R,ugm-3,48,R,ugm-3,59,R,ugm-3,2,R,ugm-3,3,R,ugm-3
10-01-2002,06:00,23,R,ugm-3 (GRAV EQ),8,R,ugm-3,44,R,ugm-3,55,R,ugm-3,4,R,ugm-3,3,R,ugm-3
10-01-2002,07:00,30,R,ugm-3 (GRAV EQ),16,R,ugm-3,46,R,ugm-3,71,R,ugm-3,2,R,ugm-3,3,R,ugm-3
10-01-2002,08:00,38,R,ugm-3 (GRAV EQ),36,R,ugm-3,52,R,ugm-3,107,R,ugm-3,2,R,ugm-3,3,R,ugm-3
10-01-2002,09:00,40,R,ugm-3 (GRAV EQ),45,R,ugm-3,52,R,ugm-3,120,R,ugm-3,2,R,ugm-3,5,R,ugm-3
10-01-2002,10:00,39,R,ugm-3 (GRAV EQ),56,R,ugm-3,50,R,ugm-3,136,R,ugm-3,2,R,ugm-3,5,R,ugm-3
10-01-2002,11:00,34,R,ugm-3 (GRAV EQ),33,R,ugm-3,46,R,ugm-3,96,R,ugm-3,4,R,ugm-3,3,R,ugm-3
10-01-2002,12:00,31,R,ugm-3 (GRAV EQ),28,R,ugm-3,44,R,ugm-3,86,R,ugm-3,10,R,ugm-3,5,R,ugm-3
10-01-2002,13:00,18,R,ugm-3 (GRAV EQ),9,R,ugm-3,29,R,ugm-3,42,R,ugm-3,30,R,ugm-3,8,R,ugm-3
10-01-2002,14:00,21,R,ugm-3 (GRAV EQ),10,R,ugm-3,31,R,ugm-3,46,R,ugm-3,30,R,ugm-3,5,R,ugm-3
10-01-2002,15:00,20,R,ugm-3 (GRAV EQ),9,R,ugm-3,31,R,ugm-3,44,R,ugm-3,30,R,ugm-3,3,R,ugm-3
10-01-2002,16:00,23,R,ugm-3 (GRAV EQ),10,R,ugm-3,40,R,ugm-3,55,R,ugm-3,16,R,ugm-3,3,R,ugm-3
10-01-2002,17:00,26,R,ugm-3 (GRAV EQ),19,R,ugm-3,44,R,ugm-3,73,R,ugm-3,8,R,ugm-3,3,R,ugm-3
10-01-2002,18:00,10,R,ugm-3 (GRAV EQ),8,R,ugm-3,36,R,ugm-3,48,R,ugm-3,18,R,ugm-3,3,R,ugm-3
10-01-2002,19:00,17,R,ugm-3 (GRAV EQ),16,R,ugm-3,50,R,ugm-3,74,R,ugm-3,4,R,ugm-3,3,R,ugm-3
10-01-2002,20:00,22,R,ugm-3 (GRAV EQ),9,R,ugm-3,40,R,ugm-3,53,R,ugm-3,10,R,ugm-3,3,R,ugm-3
10-01-2002,21:00,17,R,ugm-3 (GRAV EQ),6,R,ugm-3,38,R,ugm-3,48,R,ugm-3,10,R,ugm-3,3,R,ugm-3
10-01-2002,22:00,8,R,ugm-3 (GRAV EQ),8,R,ugm-3,40,R,ugm-3,52,R,ugm-3,12,R,ugm-3,3,R,ugm-3
10-01-2002,23:00,5,R,ugm-3 (GRAV EQ),8,R,ugm-3,46,R,ugm-3,57,R,ugm-3,6,R,ugm-3,3,R,ugm-3
10-01-2002,24:00,5,R,ugm-3 (GRAV EQ),10,R,ugm-3,42,R,ugm-3,57,R,ugm-3,2,R,ugm-3,3,R,ugm-3
11-01-2002,01:00,8,R,ugm-3 (GRAV EQ),9,R,ugm-3,46,R,ugm-3,59,R,ugm-3,4,R,ugm-3,3,R,ugm-3
11-01-2002,02:00,8,R,ugm-3 (GRAV EQ),3,R,ugm-3,40,R,ugm-3,44,R,ugm-3,4,R,ugm-3,3,R,ugm-3
11-01-2002,03:00,13,R,ugm-3 (GRAV EQ),3,R,ugm-3,44,R,ugm-3,48,R,ugm-3,4,R,ugm-3,3,R,ugm-3
11-01-2002,04:00,10,R,ugm-3 (GRAV EQ),3,R,ugm-3,40,R,ugm-3,44,R,ugm-3,10,R,ugm-3,3,R,ugm-3
11-01-2002,05:00,12,R,ugm-3 (GRAV EQ),5,R,ugm-3,36,R,ugm-3,44,R,ugm-3,6,R,ugm-3,3,R,ugm-3
11-01-2002,06:00,17,R,ugm-3 (GRAV EQ),3,R,ugm-3,36,R,ugm-3,40,R,ugm-3,4,R,ugm-3,3,R,ugm-3
11-01-2002,07:00,20,R,ugm-3 (GRAV EQ),25,R,ugm-3,44,R,ugm-3,82,R,ugm-3,0,R,ugm-3,3,R,ugm-3
11-01-2002,08:00,21,R,ugm-3 (GRAV EQ),30,R,ugm-3,46,R,ugm-3,92,R,ugm-3,0,R,ugm-3,3,R,ugm-3
11-01-2002,09:00,20,R,ugm-3 (GRAV EQ),31,R,ugm-3,44,R,ugm-3,92,R,ugm-3,0,R,ugm-3,5,R,ugm-3
11-01-2002,10:00,20,R,ugm-3 (GRAV EQ),40,R,ugm-3,44,R,ugm-3,105,R,ugm-3,0,R,ugm-3,5,R,ugm-3
11-01-2002,11:00,21,R,ugm-3 (GRAV EQ),43,R,ugm-3,44,R,ugm-3,109,R,ugm-3,0,R,ugm-3,8,R,ugm-3
11-01-2002,12:00,27,R,ugm-3 (GRAV EQ),48,R,ugm-3,46,R,ugm-3,118,R,ugm-3,2,R,ugm-3,8,R,ugm-3
11-01-2002,13:00,25,R,ugm-3 (GRAV EQ),39,R,ugm-3,48,R,ugm-3,107,R,ugm-3,4,R,ugm-3,8,R,ugm-3
11-01-2002,14:00,27,R,ugm-3 (GRAV EQ),38,R,ugm-3,48,R,ugm-3,105,R,ugm-3,6,R,ugm-3,11,R,ugm-3
11-01-2002,15:00,27,R,ugm-3 (GRAV EQ),39,R,ugm-3,52,R,ugm-3,111,R,ugm-3,6,R,ugm-3,11,R,ugm-3
11-01-2002,16:00,29,R,ugm-3 (GRAV EQ),70,R,ugm-3,53,R,ugm-3,160,R,ugm-3,0,R,ugm-3,8,R,ugm-3
11-01-2002,17:00,34,R,ugm-3 (GRAV EQ),109,R,ugm-3,53,R,ugm-3,220,R,ugm-3,0,R,ugm-3,11,R,ugm-3
11-01-2002,18:00,36,R,ugm-3 (GRAV EQ),71,R,ugm-3,59,R,ugm-3,168,R,ugm-3,0,R,ugm-3,8,R,ugm-3